| time (UTC) | temp F | wind direction | speed MPH | gust MPH | rain 1hr in | rain 24hr in | rain mn in | humidity % | barometer mb |
| 20260906112045 | 83 | 35 | 5.0 | 5.0 | 0.00 | 0.00 | 0.00 | 14 | 1014.0 |
| 20260906111044 | 83 | 35 | 5.0 | 5.0 | 0.00 | 0.00 | 0.00 | 14 | 1014.0 |
| 20260906110042 | 83 | 35 | 5.0 | 5.0 | 0.00 | 0.00 | 0.00 | 14 | 1014.0 |
| 20260906105041 | 82 | 33 | 6.0 | 6.0 | 0.00 | 0.00 | 0.00 | 15 | 1014.0 |
| 20260906104039 | 82 | 33 | 6.0 | 6.0 | 0.00 | 0.00 | 0.00 | 15 | 1014.0 |
| 20260906103038 | 82 | 33 | 6.0 | 6.0 | 0.00 | 0.00 | 0.00 | 15 | 1014.0 |
| 20260906102036 | 82 | 33 | 6.0 | 6.0 | 0.00 | 0.00 | 0.00 | 15 | 1014.0 |
| 20260906101035 | 82 | 33 | 6.0 | 6.0 | 0.00 | 0.00 | 0.00 | 15 | 1014.0 |
| 20260906100033 | 82 | 33 | 6.0 | 6.0 | 0.00 | 0.00 | 0.00 | 15 | 1014.0 |
| 20260906095032 | 81 | 33 | 5.0 | 6.0 | 0.00 | 0.00 | 0.00 | 16 | 1015.0 |
| 20260906094030 | 81 | 33 | 5.0 | 6.0 | 0.00 | 0.00 | 0.00 | 16 | 1015.0 |
| 20260906093029 | 81 | 33 | 5.0 | 6.0 | 0.00 | 0.00 | 0.00 | 16 | 1015.0 |
| 20260906092028 | 81 | 33 | 5.0 | 6.0 | 0.00 | 0.00 | 0.00 | 16 | 1015.0 |
| 20260906091026 | 81 | 33 | 5.0 | 6.0 | 0.00 | 0.00 | 0.00 | 16 | 1015.0 |
| 20260906090024 | 78 | 26 | 5.0 | 6.0 | 0.00 | 0.00 | 0.00 | 19 | 1015.0 |
| 20260906085023 | 78 | 26 | 5.0 | 6.0 | 0.00 | 0.00 | 0.00 | 19 | 1015.0 |
| 20260906084022 | 78 | 26 | 5.0 | 6.0 | 0.00 | 0.00 | 0.00 | 19 | 1015.0 |
| 20260906083020 | 78 | 26 | 5.0 | 6.0 | 0.00 | 0.00 | 0.00 | 19 | 1015.0 |
| 20260906082018 | 78 | 26 | 5.0 | 6.0 | 0.00 | 0.00 | 0.00 | 19 | 1015.0 |
| 20260906081017 | 78 | 26 | 5.0 | 6.0 | 0.00 | 0.00 | 0.00 | 19 | 1015.0 |
| 20260906080016 | 75 | 39 | 5.0 | 6.0 | 0.00 | 0.00 | 0.00 | 24 | 1016.0 |
| 20260906075014 | 75 | 39 | 5.0 | 6.0 | 0.00 | 0.00 | 0.00 | 24 | 1016.0 |
| 20260906074013 | 75 | 39 | 5.0 | 6.0 | 0.00 | 0.00 | 0.00 | 24 | 1016.0 |
| 20260906073011 | 76 | 32 | 5.0 | 6.0 | 0.00 | 0.00 | 0.00 | 23 | 1016.0 |
| 20260906072010 | 76 | 32 | 5.0 | 6.0 | 0.00 | 0.00 | 0.00 | 23 | 1016.0 |
| 20260906071009 | 76 | 32 | 5.0 | 6.0 | 0.00 | 0.00 | 0.00 | 23 | 1016.0 |
| 20260906070007 | 71 | 41 | 4.0 | 7.0 | 0.00 | 0.00 | 0.00 | 32 | 1015.0 |
| 20260906065006 | 71 | 41 | 4.0 | 7.0 | 0.00 | 0.00 | 0.00 | 32 | 1015.0 |
| 20260906064005 | 71 | 41 | 4.0 | 7.0 | 0.00 | 0.00 | 0.00 | 32 | 1015.0 |
| 20260906063003 | 71 | 41 | 4.0 | 7.0 | 0.00 | 0.00 | 0.00 | 32 | 1015.0 |
| 20260906062002 | 71 | 41 | 4.0 | 7.0 | 0.00 | 0.00 | 0.00 | 32 | 1015.0 |
| 20260906061001 | 71 | 41 | 4.0 | 7.0 | 0.00 | 0.00 | 0.00 | 32 | 1015.0 |
| 20260906060001 | 67 | 43 | 3.0 | 5.0 | 0.00 | 0.00 | 0.00 | 43 | 1016.0 |
| 20260906055959 | 67 | 43 | 3.0 | 5.0 | 0.00 | 0.00 | 0.00 | 43 | 1016.0 |
| 20260906054957 | 67 | 43 | 3.0 | 5.0 | 0.00 | 0.00 | 0.00 | 43 | 1016.0 |
| 20260906053956 | 67 | 43 | 3.0 | 5.0 | 0.00 | 0.00 | 0.00 | 43 | 1016.0 |
| 20260906052955 | 67 | 43 | 3.0 | 5.0 | 0.00 | 0.00 | 0.00 | 43 | 1016.0 |
| 20260906051953 | 67 | 43 | 3.0 | 5.0 | 0.00 | 0.00 | 0.00 | 43 | 1016.0 |
| 20260906050952 | 67 | 43 | 3.0 | 5.0 | 0.00 | 0.00 | 0.00 | 43 | 1016.0 |
| 20260906045950 | 62 | 74 | 3.0 | 3.0 | 0.00 | 0.00 | 0.00 | 50 | 1016.0 |
| 20260906044949 | 62 | 74 | 3.0 | 3.0 | 0.00 | 0.00 | 0.00 | 50 | 1016.0 |
| 20260906043948 | 62 | 74 | 3.0 | 3.0 | 0.00 | 0.00 | 0.00 | 50 | 1016.0 |
| 20260906042946 | 62 | 74 | 3.0 | 3.0 | 0.00 | 0.00 | 0.00 | 50 | 1016.0 |
| 20260906041945 | 62 | 74 | 3.0 | 3.0 | 0.00 | 0.00 | 0.00 | 50 | 1016.0 |
| 20260906040944 | 62 | 74 | 3.0 | 3.0 | 0.00 | 0.00 | 0.00 | 50 | 1016.0 |
| 20260906035942 | 61 | 51 | 2.0 | 2.0 | 0.00 | 0.00 | 0.00 | 51 | 1016.0 |
| 20260906034940 | 61 | 51 | 2.0 | 2.0 | 0.00 | 0.00 | 0.00 | 51 | 1016.0 |
| 20260906033939 | 61 | 51 | 2.0 | 2.0 | 0.00 | 0.00 | 0.00 | 51 | 1016.0 |
| 20260906032937 | 61 | 51 | 2.0 | 2.0 | 0.00 | 0.00 | 0.00 | 51 | 1016.0 |
| 20260906031936 | 61 | 51 | 2.0 | 2.0 | 0.00 | 0.00 | 0.00 | 51 | 1016.0 |
| 20260906030935 | 61 | 51 | 2.0 | 2.0 | 0.00 | 0.00 | 0.00 | 51 | 1016.0 |
| 20260906025933 | 62 | 47 | 2.0 | 2.0 | 0.00 | 0.00 | 0.00 | 48 | 1015.0 |
| 20260906024931 | 61 | 52 | 2.0 | 2.0 | 0.00 | 0.00 | 0.00 | 50 | 1015.0 |
| 20260906023930 | 61 | 52 | 2.0 | 2.0 | 0.00 | 0.00 | 0.00 | 50 | 1015.0 |
| 20260906022929 | 61 | 52 | 2.0 | 2.0 | 0.00 | 0.00 | 0.00 | 50 | 1015.0 |
| 20260906021927 | 61 | 52 | 2.0 | 2.0 | 0.00 | 0.00 | 0.00 | 50 | 1015.0 |
| 20260906020926 | 61 | 52 | 2.0 | 2.0 | 0.00 | 0.00 | 0.00 | 50 | 1015.0 |
| 20260906015924 | 62 | 38 | 2.0 | 2.0 | 0.00 | 0.00 | 0.00 | 47 | 1015.0 |
| 20260906014923 | 62 | 38 | 2.0 | 2.0 | 0.00 | 0.00 | 0.00 | 47 | 1015.0 |
| 20260906013922 | 62 | 38 | 2.0 | 2.0 | 0.00 | 0.00 | 0.00 | 47 | 1015.0 |
| 20260906012921 | 62 | 38 | 2.0 | 2.0 | 0.00 | 0.00 | 0.00 | 47 | 1015.0 |
| 20260906011920 | 62 | 38 | 2.0 | 2.0 | 0.00 | 0.00 | 0.00 | 47 | 1015.0 |
| 20260906010918 | 62 | 38 | 2.0 | 2.0 | 0.00 | 0.00 | 0.00 | 47 | 1015.0 |
| 20260906005916 | 64 | 52 | 2.0 | 2.0 | 0.00 | 0.00 | 0.00 | 42 | 1015.0 |
| 20260906004915 | 64 | 52 | 2.0 | 2.0 | 0.00 | 0.00 | 0.00 | 42 | 1015.0 |
| 20260906003913 | 64 | 52 | 2.0 | 2.0 | 0.00 | 0.00 | 0.00 | 42 | 1015.0 |
| 20260906002912 | 64 | 52 | 2.0 | 2.0 | 0.00 | 0.00 | 0.00 | 42 | 1015.0 |
| 20260906001911 | 64 | 52 | 2.0 | 2.0 | 0.00 | 0.00 | 0.00 | 42 | 1015.0 |
| 20260906000909 | 64 | 52 | 2.0 | 2.0 | 0.00 | 0.00 | 0.00 | 42 | 1015.0 |
| 20260905235908 | 65 | 70 | 3.0 | 3.0 | 0.00 | 0.00 | 0.00 | 38 | 1015.0 |
| 20260905234907 | 65 | 70 | 3.0 | 3.0 | 0.00 | 0.00 | 0.00 | 38 | 1015.0 |
| 20260905233905 | 65 | 70 | 3.0 | 3.0 | 0.00 | 0.00 | 0.00 | 38 | 1015.0 |
| 20260905232904 | 65 | 70 | 3.0 | 3.0 | 0.00 | 0.00 | 0.00 | 38 | 1015.0 |
| 20260905231903 | 65 | 70 | 3.0 | 3.0 | 0.00 | 0.00 | 0.00 | 38 | 1015.0 |
| 20260905230901 | 65 | 70 | 3.0 | 3.0 | 0.00 | 0.00 | 0.00 | 38 | 1015.0 |
| 20260905225900 | 67 | 74 | 3.0 | 4.0 | 0.00 | 0.00 | 0.00 | 33 | 1015.0 |
| 20260905224858 | 67 | 74 | 3.0 | 4.0 | 0.00 | 0.00 | 0.00 | 33 | 1015.0 |
| 20260905223857 | 67 | 74 | 3.0 | 4.0 | 0.00 | 0.00 | 0.00 | 33 | 1015.0 |
| 20260905222855 | 67 | 74 | 3.0 | 4.0 | 0.00 | 0.00 | 0.00 | 33 | 1015.0 |
| 20260905221854 | 67 | 74 | 3.0 | 4.0 | 0.00 | 0.00 | 0.00 | 33 | 1015.0 |
| 20260905220852 | 67 | 74 | 3.0 | 4.0 | 0.00 | 0.00 | 0.00 | 33 | 1015.0 |
| 20260905215851 | 67 | 74 | 3.0 | 4.0 | 0.00 | 0.00 | 0.00 | 33 | 1015.0 |
| 20260905214849 | 67 | 74 | 3.0 | 4.0 | 0.00 | 0.00 | 0.00 | 33 | 1015.0 |
| 20260905213848 | 67 | 74 | 3.0 | 4.0 | 0.00 | 0.00 | 0.00 | 33 | 1015.0 |
| 20260905212846 | 67 | 74 | 3.0 | 4.0 | 0.00 | 0.00 | 0.00 | 33 | 1015.0 |
| 20260905211844 | 67 | 74 | 3.0 | 4.0 | 0.00 | 0.00 | 0.00 | 33 | 1015.0 |
| 20260905210843 | 67 | 74 | 3.0 | 4.0 | 0.00 | 0.00 | 0.00 | 33 | 1015.0 |
| 20260905205841 | 68 | 69 | 3.0 | 4.0 | 0.00 | 0.00 | 0.00 | 25 | 1015.0 |
| 20260905204840 | 68 | 69 | 3.0 | 4.0 | 0.00 | 0.00 | 0.00 | 25 | 1015.0 |
| 20260905203839 | 69 | 73 | 4.0 | 5.0 | 0.00 | 0.00 | 0.00 | 26 | 1015.0 |
| 20260905202837 | 69 | 73 | 4.0 | 5.0 | 0.00 | 0.00 | 0.00 | 26 | 1015.0 |
| 20260905201835 | 69 | 73 | 4.0 | 5.0 | 0.00 | 0.00 | 0.00 | 26 | 1015.0 |
| 20260905200833 | 69 | 73 | 4.0 | 5.0 | 0.00 | 0.00 | 0.00 | 26 | 1015.0 |
| 20260905195832 | 70 | 80 | 4.0 | 5.0 | 0.00 | 0.00 | 0.00 | 23 | 1015.0 |
| 20260905194830 | 70 | 80 | 4.0 | 5.0 | 0.00 | 0.00 | 0.00 | 23 | 1015.0 |
| 20260905193829 | 70 | 80 | 4.0 | 5.0 | 0.00 | 0.00 | 0.00 | 23 | 1015.0 |
| 20260905192827 | 70 | 80 | 4.0 | 5.0 | 0.00 | 0.00 | 0.00 | 23 | 1015.0 |
| 20260905191825 | 70 | 80 | 4.0 | 5.0 | 0.00 | 0.00 | 0.00 | 23 | 1015.0 |
| 20260905190824 | 70 | 80 | 4.0 | 5.0 | 0.00 | 0.00 | 0.00 | 23 | 1015.0 |
| 20260905185823 | 71 | 72 | 4.0 | 9.0 | 0.00 | 0.00 | 0.00 | 22 | 1014.0 |
| 20260905184821 | 71 | 72 | 4.0 | 9.0 | 0.00 | 0.00 | 0.00 | 22 | 1014.0 |
| 20260905183820 | 71 | 72 | 4.0 | 9.0 | 0.00 | 0.00 | 0.00 | 22 | 1014.0 |
| 20260905182818 | 71 | 72 | 4.0 | 9.0 | 0.00 | 0.00 | 0.00 | 22 | 1014.0 |
| 20260905181817 | 71 | 72 | 4.0 | 9.0 | 0.00 | 0.00 | 0.00 | 22 | 1014.0 |
| 20260905180816 | 71 | 72 | 4.0 | 9.0 | 0.00 | 0.00 | 0.00 | 22 | 1014.0 |
| 20260905175814 | 73 | 49 | 4.0 | 10.0 | 0.00 | 0.00 | 0.00 | 20 | 1014.0 |
| 20260905174812 | 73 | 49 | 4.0 | 10.0 | 0.00 | 0.00 | 0.00 | 20 | 1014.0 |
| 20260905173810 | 73 | 49 | 4.0 | 10.0 | 0.00 | 0.00 | 0.00 | 20 | 1014.0 |
| 20260905172809 | 73 | 49 | 4.0 | 10.0 | 0.00 | 0.00 | 0.00 | 20 | 1014.0 |
| 20260905171808 | 73 | 49 | 4.0 | 10.0 | 0.00 | 0.00 | 0.00 | 20 | 1014.0 |
| 20260905170806 | 73 | 49 | 4.0 | 10.0 | 0.00 | 0.00 | 0.00 | 20 | 1014.0 |
| 20260905165805 | 77 | 34 | 5.0 | 9.0 | 0.00 | 0.00 | 0.00 | 18 | 1013.0 |
| 20260905164804 | 77 | 34 | 5.0 | 9.0 | 0.00 | 0.00 | 0.00 | 18 | 1013.0 |
| 20260905163803 | 77 | 34 | 5.0 | 9.0 | 0.00 | 0.00 | 0.00 | 18 | 1013.0 |
| 20260905162801 | 77 | 34 | 5.0 | 9.0 | 0.00 | 0.00 | 0.00 | 18 | 1013.0 |
| 20260905161804 | 77 | 34 | 5.0 | 9.0 | 0.00 | 0.00 | 0.00 | 18 | 1013.0 |
| 20260905161800 | 77 | 34 | 5.0 | 9.0 | 0.00 | 0.00 | 0.00 | 18 | 1013.0 |
| 20260905160802 | 77 | 34 | 5.0 | 9.0 | 0.00 | 0.00 | 0.00 | 18 | 1013.0 |
| 20260905160758 | 77 | 34 | 5.0 | 9.0 | 0.00 | 0.00 | 0.00 | 18 | 1013.0 |
| 20260905155801 | 82 | 34 | 7.0 | 12.0 | 0.00 | 0.00 | 0.00 | 17 | 1012.0 |
| 20260905154756 | 82 | 34 | 7.0 | 12.0 | 0.00 | 0.00 | 0.00 | 17 | 1012.0 |
| 20260905153755 | 82 | 34 | 7.0 | 12.0 | 0.00 | 0.00 | 0.00 | 17 | 1012.0 |
| 20260905152753 | 82 | 34 | 7.0 | 12.0 | 0.00 | 0.00 | 0.00 | 17 | 1012.0 |
| 20260905151752 | 82 | 34 | 7.0 | 12.0 | 0.00 | 0.00 | 0.00 | 17 | 1012.0 |
| 20260905150750 | 82 | 34 | 7.0 | 12.0 | 0.00 | 0.00 | 0.00 | 17 | 1012.0 |
| 20260905145749 | 83 | 33 | 7.0 | 11.0 | 0.00 | 0.00 | 0.00 | 17 | 1012.0 |
| 20260905144748 | 83 | 33 | 7.0 | 11.0 | 0.00 | 0.00 | 0.00 | 17 | 1012.0 |
| 20260905143746 | 83 | 33 | 7.0 | 11.0 | 0.00 | 0.00 | 0.00 | 17 | 1012.0 |
| 20260905142745 | 83 | 33 | 7.0 | 11.0 | 0.00 | 0.00 | 0.00 | 17 | 1012.0 |
| 20260905141743 | 84 | 31 | 7.0 | 12.0 | 0.00 | 0.00 | 0.00 | 18 | 1012.0 |
| 20260905140742 | 84 | 31 | 7.0 | 12.0 | 0.00 | 0.00 | 0.00 | 18 | 1012.0 |
| 20260905135740 | 85 | 31 | 7.0 | 10.0 | 0.00 | 0.00 | 0.00 | 18 | 1012.0 |
| 20260905134739 | 85 | 31 | 7.0 | 10.0 | 0.00 | 0.00 | 0.00 | 18 | 1012.0 |
| 20260905133738 | 85 | 31 | 7.0 | 10.0 | 0.00 | 0.00 | 0.00 | 18 | 1012.0 |
| 20260905132736 | 85 | 31 | 7.0 | 10.0 | 0.00 | 0.00 | 0.00 | 18 | 1012.0 |
| 20260905131735 | 85 | 31 | 7.0 | 10.0 | 0.00 | 0.00 | 0.00 | 18 | 1012.0 |
| 20260905130734 | 85 | 31 | 7.0 | 10.0 | 0.00 | 0.00 | 0.00 | 18 | 1012.0 |
| 20260905125732 | 85 | 31 | 6.0 | 11.0 | 0.00 | 0.00 | 0.00 | 18 | 1012.0 |
| 20260905124731 | 85 | 31 | 6.0 | 11.0 | 0.00 | 0.00 | 0.00 | 18 | 1012.0 |
| 20260905123730 | 85 | 31 | 6.0 | 11.0 | 0.00 | 0.00 | 0.00 | 18 | 1012.0 |
| 20260905122728 | 85 | 31 | 6.0 | 11.0 | 0.00 | 0.00 | 0.00 | 18 | 1012.0 |
| 20260905121727 | 85 | 31 | 6.0 | 11.0 | 0.00 | 0.00 | 0.00 | 18 | 1012.0 |
| 20260905120726 | 85 | 31 | 6.0 | 11.0 | 0.00 | 0.00 | 0.00 | 18 | 1012.0 |
| 20260905115724 | 85 | 32 | 6.0 | 11.0 | 0.00 | 0.00 | 0.00 | 19 | 1013.0 |
| 20260905114723 | 85 | 32 | 6.0 | 11.0 | 0.00 | 0.00 | 0.00 | 19 | 1013.0 |
| 20260905113721 | 85 | 32 | 6.0 | 11.0 | 0.00 | 0.00 | 0.00 | 19 | 1013.0 |
| 20260905112720 | 85 | 32 | 6.0 | 11.0 | 0.00 | 0.00 | 0.00 | 19 | 1013.0 |